Welcome to Hicks Airfield

Driving Safety »



  • Current KAFW METAR
    (5.8nm NE) VFR
    KAFW 180753Z 10005KT 10SM SCT250 24/21 A2998 RMK AO2 SLP135 T02440211
  • Flappings Newsletter
    The official newsletter of HAPA.
    Read »
  • Property Owner's Portal
    Create an account on our owner's portal for access to secure documents.
    Log-in »